SCP
0 0 0 0 0 0 0 0 0 0 0 0 0 0 0 0 0 0 0 0 0 0 0 0 0 0 0 0 0 0 0 0 0 0 0 0 0 0
0 0 0 0 0 0 0 0 0 0 0 0 0 0 0 0 0 0 0 0 0 0 0 0 0 0 0 0 0 0 0 0 0 0 0 0 0 0
0 0 0 0 0 0 0 0 0 0 0 0 0 0 0 0 0 0 0 0 0 0 0 0 0 0 0 0 0 0 0 0 0 0 0 0 0 0
0 0 0 0 0 0 0 0 0 0 0 0 0 0 0 0 0 0 0 0 0 0 0 0 0 0 0 0 0 0 0 0 0 0 0 0 0 0
0 0 0 0 0 0 0 0 0 0 0 0 0 0 0 0 0 0 0 0 0 0 0 0 0 0 0 0 0 0 0 0 0 0 0 0 0 0
0 0 0 0 0 0 0 0 0 0 0 0 0 0 0 0 0 0 0 0 0 0 0 0 0 0 0 0 0 0 0 0 0 0 0 0 0 0
0 0 0 0 0 0 0 0 0 0 0 0 0 0 0 0 0 0 0 0 0 0 0 0 0 0 0 0 0 0 0 0 0 0 0 0 0 0
0 0 0 0 0 0 0 0 0 0 0 0 0 0 0 0 0 0 0 0 0 0 0 0 0 0 0 0 0 0 0 0 0 0 0 0 0 0
0 0 0 0 0 0 0 0 0 0 0 0 0 0 0 0 0 0 0 0 0 0 0 0 0 0 0 0 0 0 0 0 0 0 0 0 0 0
0 0 0 0 0 0 0 0 0 0 0 0 0 0 0 0 0 0 0 0 0 0 0 0 0 0 0 0 0 0 0 0 0 0 0 0 0 0
0 0 0 0 0 0 0 0 0 0 0 0 0 0 0 0 0 0 0 0 0 0 0 0 0 0 0 0 0 0 0 0 0 0 0 0 0 0
0 0 0 0 0 0 0 0 0 0 0 0 0 0 0 0 0 0 0 0 0 0 0 0 0 0 0 0 0 0 0 0 0 0 0 0 0 0
0 0 0 0 0 0 0 0 0 0 0 0 0 0 0 0 0 0 0 0 0 0 0 0 0 0 0 0 0 0 0 0 0 0 0 0 0 0
0 0 0 0 0 0 0 0 0 0 0 0 0 0 0 0 0 0 0 0 0 0 0 0 0 0 0 0 0 0 0 0 0 0 0 0 0 0
0 0 0 0 0 0 -0 0 0 0 0 0 0 0 0 0 0 0 0 0 0 0 0 0 0 0 0 0 0 0 0 0 0 0 0 0 0 0
0 0 0 0 0 0 0 0 0 0 0 0 0 0 0 0 0 0 0 0 0 0 0 0 0 0 0 0 0 0 0 0 0 0 0 0 0 0
-0 -0 0 0 0 0 0 0 0 0 0 0 0 0 0 0 0 0 0 0 0 0 0 0 0 0 0 0 0 0 0 0 0 0 0 0 0 0
-0 -0 0 0 0 0 0 0 0 0 0 0 0 0 0 0 0 0 0 0 0 0 0 0 0 0 0 0 0 0 0 0 0 0 0 0 0 0
-0 0 0 0 0 0 0 0 0 0 0 0 0 0 0 0 0 0 0 0 0 0 0 0 0 0 0 0 0 0 0 0 0 0 0 0 0 0
-0 -0 0 0 0 0 0 0 0 0 0 0 0 0 0 0 0 0 0 0 0 0 0 0 0 0 0 0 0 0 0 0 0 0 0 0 0 0
-0 -0 0 0 0 0 0 0 0 0 0 0 0 0 0 0 0 0 0 0 0 0 0 0 0 0 0 0 0 0 0 0 0 0 0 0 0 0
-0 -0 -0 -0 0 0 0 0 0 0 0 0 0 0 0 0 0 0 0 0 0 0 0 0 0 0 0 0 0 0 0 0 0 0 0 0 0 0
0 0 -0 -0 -0 0 0 0 0 0 0 0 0 0 0 0 0 0 0 0 0 0 0 0 0 0 0 0 0 0 0 0 0 0 0 0 0 0
Wind_Speed_500mb
88 82 97 103 98 91 85 84 98 86 94 88 95 106 97 91 86 80 80 81 85 88 85 85 83 78 79 78 77 73 70 69 67 66 68 74 78 81
84 92 105 99 97 96 94 89 94 112 110 88 93 109 100 88 79 70 72 75 79 83 85 84 86 86 83 81 80 73 71 73 71 68 69 74 76 67
83 93 98 92 96 106 107 97 107 115 113 108 108 108 114 107 98 92 88 78 75 77 79 82 85 83 81 81 78 73 74 75 67 76 71 77 73 55
88 88 100 101 102 110 102 117 122 123 112 112 109 108 113 110 101 94 91 82 81 77 76 83 85 82 82 83 80 75 72 73 72 76 78 71 61 52
88 95 102 98 103 112 112 110 115 113 116 115 107 108 115 107 102 95 91 89 83 83 79 86 83 83 85 84 84 79 75 73 71 78 71 60 58 52
82 96 98 102 111 109 106 114 114 112 114 117 103 103 101 114 104 99 96 88 83 90 85 88 87 88 88 87 87 81 80 77 77 76 63 58 57 56
91 83 89 99 105 108 108 110 108 111 111 103 107 102 98 105 116 107 109 86 83 88 80 90 97 97 95 93 94 89 84 81 74 67 61 60 59 57
88 97 99 95 96 103 103 109 112 110 100 104 106 106 117 123 132 119 123 114 116 97 90 87 105 107 108 99 99 97 86 76 67 60 61 59 57 54
85 87 99 106 104 101 100 100 108 101 122 126 111 108 114 116 114 122 128 123 121 111 112 109 103 113 119 102 103 95 81 67 63 58 59 59 57 55
89 89 92 100 104 95 96 99 113 113 109 112 115 123 122 129 122 129 133 127 117 106 102 108 110 112 121 111 104 97 80 69 64 63 63 62 58 53
93 92 92 97 94 88 90 96 105 124 120 116 108 114 106 126 125 142 120 101 107 112 110 109 112 110 121 113 101 93 80 73 67 66 65 64 58 54
102 100 99 91 87 80 72 82 96 123 108 106 102 105 110 102 115 120 126 122 108 92 115 116 107 99 71 94 97 89 83 77 70 67 67 64 61 63
96 101 98 92 94 88 82 84 102 100 92 101 113 100 100 116 110 108 116 128 118 112 109 110 108 100 76 74 98 92 87 85 78 74 71 68 69 64
99 100 101 107 106 100 93 98 97 93 104 106 99 102 110 105 113 103 96 108 123 126 109 107 103 102 106 74 75 95 93 86 82 86 82 76 70 66
101 111 110 105 100 102 97 92 86 90 87 104 111 109 109 105 94 97 94 97 117 128 123 96 100 103 115 96 101 94 107 99 89 88 85 85 83 77
100 108 110 100 92 88 88 78 71 70 76 85 100 102 97 95 86 93 97 87 94 109 106 103 97 105 117 112 113 101 103 99 106 96 90 87 81 72
89 80 64 58 68 75 75 74 73 65 64 69 79 90 89 86 84 89 84 84 89 98 103 98 90 108 105 116 103 97 103 107 91 109 101 90 82 75
74 71 68 66 62 57 51 63 68 64 60 59 61 66 71 76 75 85 85 86 87 92 104 108 107 102 73 70 87 89 91 98 99 100 104 100 91 80
78 80 79 78 78 71 65 58 54 61 59 56 58 59 62 69 70 77 82 86 85 91 103 115 121 116 103 73 85 91 97 104 105 93 109 103 92 83
80 82 83 85 85 83 78 72 65 56 49 60 57 58 58 64 72 75 79 83 85 89 94 104 118 124 115 103 90 105 100 96 107 104 102 92 78 64
74 76 78 79 85 86 83 77 72 66 56 48 57 59 61 61 68 73 76 79 83 88 95 107 120 113 81 78 67 78 81 72 85 97 97 94 86 79
76 75 73 75 78 81 83 82 78 72 67 58 50 45 64 62 65 69 72 77 81 91 91 93 100 104 98 93 83 90 96 81 72 80 78 89 94 81
75 76 76 74 73 76 78 80 80 76 73 69 65 53 44 59 65 65 69 74 76 80 79 85 90 99 98 93 95 93 99 95 91 87 80 81 56 59
Wind_Direction_500mb
281 278 265 266 264 266 268 272 255 259 261 263 268 273 270 267 264 257 253 249 246 245 246 246 246 244 245 240 242 246 247 246 252 257 257 259 262 264
281 279 274 278 265 268 269 274 268 260 258 258 260 271 272 269 266 261 254 249 244 242 242 243 245 242 243 240 243 243 243 246 251 254 257 259 259 260
281 278 276 278 277 269 265 266 267 253 249 259 264 269 268 264 262 261 258 251 243 237 238 241 240 239 240 240 243 241 244 247 248 258 268 269 263 246
272 277 276 276 277 272 270 267 263 260 262 257 261 266 267 266 264 259 254 249 240 243 241 241 235 235 238 237 237 239 247 246 255 263 272 263 249 242
284 280 272 276 277 270 271 268 262 260 250 254 264 266 258 264 261 257 253 244 239 242 240 238 236 237 237 239 235 240 240 248 255 262 267 247 241 232
282 281 278 274 273 273 273 267 259 255 254 250 250 256 247 253 256 255 250 248 243 240 238 235 236 238 235 236 237 241 241 247 252 261 252 234 231 225
271 272 279 274 272 271 272 270 266 256 254 244 252 256 239 240 246 251 250 250 244 240 231 238 233 236 231 235 236 236 240 245 253 261 239 231 228 227
284 278 270 270 278 277 275 273 272 264 254 251 259 246 242 251 250 250 247 239 236 227 230 231 239 237 234 232 235 235 238 243 252 255 230 227 228 226
288 287 283 278 272 272 279 278 277 273 269 268 264 247 247 246 258 242 241 233 234 227 227 228 237 240 232 232 233 229 232 241 250 237 227 226 225 226
296 292 287 286 280 280 273 274 273 275 269 268 266 261 257 255 264 262 252 250 238 232 232 232 237 237 234 229 228 227 230 237 243 231 226 224 223 222
302 297 294 291 288 287 280 269 272 269 270 274 266 274 267 268 258 255 248 233 232 230 233 237 238 236 228 225 222 224 226 233 237 226 221 220 216 214
306 302 298 297 298 299 290 280 276 269 275 278 273 271 273 270 266 248 248 237 226 227 234 228 227 223 214 217 217 219 220 225 225 221 219 216 212 211
304 303 302 302 302 301 292 283 268 273 276 279 273 273 267 272 268 258 246 247 242 233 239 226 220 218 209 208 210 213 218 219 215 213 214 212 213 212
297 296 297 300 301 300 294 284 281 279 267 269 274 269 269 266 270 267 263 259 249 252 247 236 224 220 210 194 194 206 213 217 216 212 208 208 209 210
307 302 299 301 302 302 299 296 286 277 280 265 263 266 268 269 274 273 262 263 248 247 241 236 237 232 223 210 211 206 205 212 212 210 208 209 208 207
316 306 305 303 299 300 300 295 293 284 279 272 265 266 271 274 268 269 266 257 240 234 235 235 235 228 212 222 220 213 211 203 206 205 207 206 209 212
325 318 313 311 304 297 306 300 299 294 286 278 273 269 269 269 270 268 261 256 241 231 227 226 220 216 220 216 209 216 211 210 208 203 200 203 206 210
341 343 341 338 333 325 321 309 312 308 298 291 284 277 274 270 268 265 258 249 243 232 227 221 209 205 202 207 215 214 210 212 204 205 202 201 202 205
357 355 353 352 349 344 337 330 323 311 313 303 296 288 281 276 267 262 258 252 240 233 228 223 210 202 191 188 202 210 216 206 202 198 202 204 205 205
355 358 355 355 353 351 347 344 338 329 316 316 310 303 292 279 267 258 254 249 237 224 217 214 209 201 203 196 195 204 210 211 202 196 193 199 202 202
352 352 353 354 354 352 351 348 347 346 339 323 312 313 302 288 273 263 256 251 239 226 218 217 218 209 203 199 191 190 197 204 218 202 193 191 191 194
349 349 350 350 351 352 352 352 349 350 348 342 334 320 306 301 284 269 257 246 236 228 225 222 212 206 203 210 203 193 188 189 199 203 202 199 194 191
346 346 347 346 347 347 349 350 352 351 350 348 340 335 329 301 295 279 261 251 240 225 215 211 210 209 206 208 207 192 188 186 185 186 189 196 195 202
Wind_Speed_850mb
88 82 97 103 98 91 85 84 98 86 94 88 95 106 97 91 86 80 80 81 85 88 85 85 83 78 79 78 77 73 70 69 67 66 68 74 78 81
84 92 105 99 97 96 94 89 94 112 110 88 93 109 100 88 79 70 72 75 79 83 85 84 86 86 83 81 80 73 71 73 71 68 69 74 76 67
83 93 98 92 96 106 107 97 107 115 113 108 108 108 114 107 98 92 88 78 75 77 79 82 85 83 81 81 78 73 74 75 67 76 71 77 73 55
88 88 100 101 102 110 102 117 122 123 112 112 109 108 113 110 101 94 91 82 81 77 76 83 85 82 82 83 80 75 72 73 72 76 78 71 61 52
88 95 102 98 103 112 112 110 115 113 116 115 107 108 115 107 102 95 91 89 83 83 79 86 83 83 85 84 84 79 75 73 71 78 71 60 58 52
82 96 98 102 111 109 106 114 114 112 114 117 103 103 101 114 104 99 96 88 83 90 85 88 87 88 88 87 87 81 80 77 77 76 63 58 57 56
91 83 89 99 105 108 108 110 108 111 111 103 107 102 98 105 116 107 109 86 83 88 80 90 97 97 95 93 94 89 84 81 74 67 61 60 59 57
88 97 99 95 96 103 103 109 112 110 100 104 106 106 117 123 132 119 123 114 116 97 90 87 105 107 108 99 99 97 86 76 67 60 61 59 57 54
85 87 99 106 104 101 100 100 108 101 122 126 111 108 114 116 114 122 128 123 121 111 112 109 103 113 119 102 103 95 81 67 63 58 59 59 57 55
89 89 92 100 104 95 96 99 113 113 109 112 115 123 122 129 122 129 133 127 117 106 102 108 110 112 121 111 104 97 80 69 64 63 63 62 58 53
93 92 92 97 94 88 90 96 105 124 120 116 108 114 106 126 125 142 120 101 107 112 110 109 112 110 121 113 101 93 80 73 67 66 65 64 58 54
102 100 99 91 87 80 72 82 96 123 108 106 102 105 110 102 115 120 126 122 108 92 115 116 107 99 71 94 97 89 83 77 70 67 67 64 61 63
96 101 98 92 94 88 82 84 102 100 92 101 113 100 100 116 110 108 116 128 118 112 109 110 108 100 76 74 98 92 87 85 78 74 71 68 69 64
99 100 101 107 106 100 93 98 97 93 104 106 99 102 110 105 113 103 96 108 123 126 109 107 103 102 106 74 75 95 93 86 82 86 82 76 70 66
101 111 110 105 100 102 97 92 86 90 87 104 111 109 109 105 94 97 94 97 117 128 123 96 100 103 115 96 101 94 107 99 89 88 85 85 83 77
100 108 110 100 92 88 88 78 71 70 76 85 100 102 97 95 86 93 97 87 94 109 106 103 97 105 117 112 113 101 103 99 106 96 90 87 81 72
89 80 64 58 68 75 75 74 73 65 64 69 79 90 89 86 84 89 84 84 89 98 103 98 90 108 105 116 103 97 103 107 91 109 101 90 82 75
74 71 68 66 62 57 51 63 68 64 60 59 61 66 71 76 75 85 85 86 87 92 104 108 107 102 73 70 87 89 91 98 99 100 104 100 91 80
78 80 79 78 78 71 65 58 54 61 59 56 58 59 62 69 70 77 82 86 85 91 103 115 121 116 103 73 85 91 97 104 105 93 109 103 92 83
80 82 83 85 85 83 78 72 65 56 49 60 57 58 58 64 72 75 79 83 85 89 94 104 118 124 115 103 90 105 100 96 107 104 102 92 78 64
74 76 78 79 85 86 83 77 72 66 56 48 57 59 61 61 68 73 76 79 83 88 95 107 120 113 81 78 67 78 81 72 85 97 97 94 86 79
76 75 73 75 78 81 83 82 78 72 67 58 50 45 64 62 65 69 72 77 81 91 91 93 100 104 98 93 83 90 96 81 72 80 78 89 94 81
75 76 76 74 73 76 78 80 80 76 73 69 65 53 44 59 65 65 69 74 76 80 79 85 90 99 98 93 95 93 99 95 91 87 80 81 56 59
Wind_Direction_850mb
281 278 265 266 264 266 268 272 255 259 261 263 268 273 270 267 264 257 253 249 246 245 246 246 246 244 245 240 242 246 247 246 252 257 257 259 262 264
281 279 274 278 265 268 269 274 268 260 258 258 260 271 272 269 266 261 254 249 244 242 242 243 245 242 243 240 243 243 243 246 251 254 257 259 259 260
281 278 276 278 277 269 265 266 267 253 249 259 264 269 268 264 262 261 258 251 243 237 238 241 240 239 240 240 243 241 244 247 248 258 268 269 263 246
272 277 276 276 277 272 270 267 263 260 262 257 261 266 267 266 264 259 254 249 240 243 241 241 235 235 238 237 237 239 247 246 255 263 272 263 249 242
284 280 272 276 277 270 271 268 262 260 250 254 264 266 258 264 261 257 253 244 239 242 240 238 236 237 237 239 235 240 240 248 255 262 267 247 241 232
282 281 278 274 273 273 273 267 259 255 254 250 250 256 247 253 256 255 250 248 243 240 238 235 236 238 235 236 237 241 241 247 252 261 252 234 231 225
271 272 279 274 272 271 272 270 266 256 254 244 252 256 239 240 246 251 250 250 244 240 231 238 233 236 231 235 236 236 240 245 253 261 239 231 228 227
284 278 270 270 278 277 275 273 272 264 254 251 259 246 242 251 250 250 247 239 236 227 230 231 239 237 234 232 235 235 238 243 252 255 230 227 228 226
288 287 283 278 272 272 279 278 277 273 269 268 264 247 247 246 258 242 241 233 234 227 227 228 237 240 232 232 233 229 232 241 250 237 227 226 225 226
296 292 287 286 280 280 273 274 273 275 269 268 266 261 257 255 264 262 252 250 238 232 232 232 237 237 234 229 228 227 230 237 243 231 226 224 223 222
302 297 294 291 288 287 280 269 272 269 270 274 266 274 267 268 258 255 248 233 232 230 233 237 238 236 228 225 222 224 226 233 237 226 221 220 216 214
306 302 298 297 298 299 290 280 276 269 275 278 273 271 273 270 266 248 248 237 226 227 234 228 227 223 214 217 217 219 220 225 225 221 219 216 212 211
304 303 302 302 302 301 292 283 268 273 276 279 273 273 267 272 268 258 246 247 242 233 239 226 220 218 209 208 210 213 218 219 215 213 214 212 213 212
297 296 297 300 301 300 294 284 281 279 267 269 274 269 269 266 270 267 263 259 249 252 247 236 224 220 210 194 194 206 213 217 216 212 208 208 209 210
307 302 299 301 302 302 299 296 286 277 280 265 263 266 268 269 274 273 262 263 248 247 241 236 237 232 223 210 211 206 205 212 212 210 208 209 208 207
316 306 305 303 299 300 300 295 293 284 279 272 265 266 271 274 268 269 266 257 240 234 235 235 235 228 212 222 220 213 211 203 206 205 207 206 209 212
325 318 313 311 304 297 306 300 299 294 286 278 273 269 269 269 270 268 261 256 241 231 227 226 220 216 220 216 209 216 211 210 208 203 200 203 206 210
341 343 341 338 333 325 321 309 312 308 298 291 284 277 274 270 268 265 258 249 243 232 227 221 209 205 202 207 215 214 210 212 204 205 202 201 202 205
357 355 353 352 349 344 337 330 323 311 313 303 296 288 281 276 267 262 258 252 240 233 228 223 210 202 191 188 202 210 216 206 202 198 202 204 205 205
355 358 355 355 353 351 347 344 338 329 316 316 310 303 292 279 267 258 254 249 237 224 217 214 209 201 203 196 195 204 210 211 202 196 193 199 202 202
352 352 353 354 354 352 351 348 347 346 339 323 312 313 302 288 273 263 256 251 239 226 218 217 218 209 203 199 191 190 197 204 218 202 193 191 191 194
349 349 350 350 351 352 352 352 349 350 348 342 334 320 306 301 284 269 257 246 236 228 225 222 212 206 203 210 203 193 188 189 199 203 202 199 194 191
346 346 347 346 347 347 349 350 352 351 350 348 340 335 329 301 295 279 261 251 240 225 215 211 210 209 206 208 207 192 188 186 185 186 189 196 195 202